| time (UTC) | temp F | wind direction | speed MPH | gust MPH | rain 1hr in | rain 24hr in | rain mn in | humidity % | barometer mb |
| 20260904163541 | 84 | 23 | 3.0 | 5.0 | 0.00 | 0.00 | 0.00 | 83 | 1012.4 |
| 20260904162516 | 84 | 315 | 4.0 | 10.0 | 0.00 | 0.00 | 0.00 | 84 | 1012.4 |
| 20260904161516 | 83 | 68 | 2.0 | 5.0 | 0.00 | 0.00 | 0.00 | 85 | 1012.3 |
| 20260904160516 | 82 | 68 | 2.0 | 5.0 | 0.00 | 0.00 | 0.00 | 84 | 1012.2 |
| 20260904155516 | 82 | 45 | 3.0 | 5.0 | 0.00 | 0.00 | 0.00 | 85 | 1012.1 |
| 20260904154515 | 82 | 90 | 2.0 | 3.0 | 0.00 | 0.00 | 0.00 | 87 | 1012.0 |
| 20260904153520 | 81 | 338 | 2.0 | 4.0 | 0.00 | 0.00 | 0.00 | 85 | 1012.1 |
| 20260904152515 | 81 | 293 | 1.0 | 4.0 | 0.00 | 0.00 | 0.00 | 88 | 1012.0 |
| 20260904151516 | 80 | 293 | 2.0 | 4.0 | 0.00 | 0.00 | 0.00 | 88 | 1011.9 |
| 20260904150516 | 80 | 225 | 1.0 | 3.0 | 0.00 | 0.00 | 0.00 | 89 | 1011.9 |
| 20260904145515 | 79 | 225 | 3.0 | 4.0 | 0.00 | 0.00 | 0.00 | 89 | 1011.9 |
| 20260904144515 | 79 | 270 | 1.0 | 5.0 | 0.00 | 0.00 | 0.00 | 90 | 1011.9 |
| 20260904143536 | 78 | 270 | 1.0 | 4.0 | 0.00 | 0.00 | 0.00 | 90 | 1011.8 |
| 20260904142516 | 78 | 270 | 1.0 | 6.0 | 0.00 | 0.00 | 0.00 | 91 | 1011.8 |
| 20260904141515 | 77 | 248 | 2.0 | 4.0 | 0.00 | 0.00 | 0.00 | 93 | 1011.6 |
| 20260904140516 | 77 | 248 | 1.0 | 3.0 | 0.00 | 0.00 | 0.00 | 94 | 1011.6 |
| 20260904135515 | 76 | 203 | 3.0 | 6.0 | 0.00 | 0.00 | 0.00 | 96 | 1011.6 |
| 20260904134517 | 75 | 203 | 3.0 | 4.0 | 0.00 | 0.00 | 0.00 | 96 | 1011.5 |
| 20260904133517 | 74 | 203 | 2.0 | 4.0 | 0.00 | 0.00 | 0.00 | 97 | 1011.5 |
| 20260904132517 | 73 | 203 | 3.0 | 4.0 | 0.00 | 0.00 | 0.00 | 98 | 1011.5 |
| 20260904131517 | 72 | 203 | 4.0 | 5.0 | 0.00 | 0.00 | 0.00 | 98 | 1011.4 |
| 20260904130537 | 72 | 180 | 2.0 | 4.0 | 0.00 | 0.00 | 0.00 | 98 | 1011.5 |
| 20260904125517 | 71 | 180 | 3.0 | 5.0 | 0.00 | 0.00 | 0.00 | 98 | 1011.4 |
| 20260904124517 | 71 | 180 | 3.0 | 5.0 | 0.00 | 0.00 | 0.00 | 98 | 1011.3 |
| 20260904123518 | 70 | 180 | 2.0 | 4.0 | 0.00 | 0.00 | 0.00 | 98 | 1011.3 |
| 20260904122517 | 70 | 0.0 | 0.0 | 0.00 | 0.00 | 0.00 | 98 | 1011.2 | |
| 20260904121517 | 70 | 0.0 | 0.0 | 0.00 | 0.00 | 0.00 | 98 | 1011.1 | |
| 20260904120518 | 70 | 0.0 | 2.0 | 0.00 | 0.00 | 0.00 | 98 | 1011.1 | |
| 20260904115517 | 70 | 0.0 | 0.0 | 0.00 | 0.00 | 0.00 | 97 | 1010.9 | |
| 20260904114517 | 70 | 0.0 | 0.0 | 0.00 | 0.00 | 0.00 | 97 | 1010.8 | |
| 20260904113517 | 70 | 0.0 | 0.0 | 0.00 | 0.00 | 0.00 | 97 | 1010.7 | |
| 20260904112517 | 70 | 0.0 | 0.0 | 0.00 | 0.00 | 0.00 | 97 | 1010.6 | |
| 20260904111517 | 70 | 0.0 | 1.0 | 0.00 | 0.00 | 0.00 | 97 | 1010.5 | |
| 20260904110518 | 71 | 203 | 2.0 | 3.0 | 0.00 | 0.00 | 0.00 | 97 | 1010.5 |
| 20260904105517 | 71 | 203 | 2.0 | 4.0 | 0.00 | 0.00 | 0.00 | 97 | 1010.4 |
| 20260904104517 | 72 | 203 | 3.0 | 4.0 | 0.00 | 0.00 | 0.00 | 97 | 1010.4 |
| 20260904103558 | 72 | 203 | 3.0 | 4.0 | 0.00 | 0.00 | 0.00 | 97 | 1010.4 |
| 20260904102537 | 72 | 203 | 2.0 | 3.0 | 0.00 | 0.00 | 0.00 | 97 | 1010.6 |
| 20260904101537 | 73 | 203 | 2.0 | 3.0 | 0.00 | 0.01 | 0.00 | 97 | 1010.6 |
| 20260904100517 | 73 | 203 | 2.0 | 3.0 | 0.00 | 0.18 | 0.00 | 96 | 1010.6 |
| 20260904095517 | 73 | 203 | 3.0 | 4.0 | 0.00 | 0.24 | 0.00 | 96 | 1010.6 |
| 20260904094517 | 73 | 203 | 3.0 | 4.0 | 0.00 | 0.25 | 0.00 | 96 | 1010.5 |
| 20260904093517 | 73 | 0.0 | 0.0 | 0.00 | 0.25 | 0.00 | 96 | 1010.3 | |
| 20260904092517 | 73 | 0.0 | 0.0 | 0.00 | 0.25 | 0.00 | 96 | 1010.2 | |
| 20260904091618 | 73 | 0.0 | 0.0 | 0.00 | 0.25 | 0.00 | 96 | 1010.2 | |
| 20260904090516 | 73 | 0.0 | 1.0 | 0.00 | 0.25 | 0.00 | 96 | 1010.2 | |
| 20260904085537 | 74 | 203 | 1.0 | 2.0 | 0.00 | 0.25 | 0.00 | 96 | 1010.0 |
| 20260904084537 | 74 | 203 | 3.0 | 4.0 | 0.00 | 0.25 | 0.00 | 96 | 1010.0 |
| 20260904083517 | 74 | 203 | 3.0 | 5.0 | 0.00 | 0.25 | 0.00 | 96 | 1010.0 |
| 20260904082538 | 74 | 203 | 4.0 | 5.0 | 0.00 | 0.25 | 0.00 | 96 | 1010.0 |
| 20260904081517 | 74 | 203 | 3.0 | 4.0 | 0.00 | 0.25 | 0.00 | 96 | 1009.9 |
| 20260904080517 | 74 | 203 | 2.0 | 4.0 | 0.00 | 0.25 | 0.00 | 96 | 1010.0 |
| 20260904075517 | 74 | 203 | 3.0 | 5.0 | 0.00 | 0.25 | 0.00 | 96 | 1010.1 |
| 20260904074517 | 75 | 203 | 3.0 | 5.0 | 0.00 | 0.25 | 0.00 | 96 | 1010.0 |
| 20260904073517 | 75 | 203 | 3.0 | 4.0 | 0.00 | 0.25 | 0.00 | 95 | 1010.1 |
| 20260904072517 | 75 | 203 | 3.0 | 5.0 | 0.00 | 0.25 | 0.00 | 95 | 1010.2 |
| 20260904071516 | 76 | 180 | 3.0 | 5.0 | 0.00 | 0.25 | 0.00 | 95 | 1010.2 |
| 20260904070517 | 76 | 180 | 4.0 | 6.0 | 0.00 | 0.25 | 0.00 | 95 | 1010.2 |
| 20260904065516 | 76 | 180 | 3.0 | 6.0 | 0.00 | 0.25 | 0.00 | 96 | 1010.2 |
| 20260904064517 | 76 | 180 | 4.0 | 7.0 | 0.00 | 0.25 | 0.00 | 95 | 1010.2 |
| 20260904063516 | 76 | 180 | 5.0 | 8.0 | 0.00 | 0.25 | 0.00 | 96 | 1010.3 |
| 20260904062516 | 76 | 180 | 5.0 | 9.0 | 0.00 | 0.25 | 0.00 | 96 | 1010.0 |
| 20260904061516 | 76 | 180 | 6.0 | 8.0 | 0.00 | 0.25 | 0.00 | 96 | 1010.0 |
| 20260904060517 | 76 | 158 | 6.0 | 9.0 | 0.00 | 0.25 | 0.00 | 95 | 1009.9 |
| 20260904055517 | 76 | 158 | 6.0 | 9.0 | 0.00 | 0.25 | 0.00 | 95 | 1009.9 |
| 20260904054516 | 76 | 158 | 5.0 | 7.0 | 0.00 | 0.25 | 0.00 | 95 | 1009.9 |
| 20260904053516 | 76 | 158 | 5.0 | 7.0 | 0.00 | 0.25 | 0.00 | 95 | 1009.9 |
| 20260904052517 | 76 | 158 | 5.0 | 7.0 | 0.00 | 0.25 | 0.00 | 95 | 1009.8 |
| 20260904051516 | 75 | 180 | 3.0 | 6.0 | 0.00 | 0.25 | 0.00 | 95 | 1009.7 |
| 20260904050537 | 76 | 180 | 4.0 | 6.0 | 0.00 | 0.25 | 0.00 | 94 | 1009.6 |
| 20260904045517 | 76 | 180 | 4.0 | 6.0 | 0.00 | 0.25 | 0.25 | 94 | 1009.6 |
| 20260904044517 | 76 | 180 | 5.0 | 7.0 | 0.00 | 0.25 | 0.25 | 94 | 1009.5 |
| 20260904043517 | 76 | 180 | 5.0 | 7.0 | 0.00 | 0.25 | 0.25 | 94 | 1009.4 |
| 20260904042517 | 76 | 180 | 8.0 | 11.0 | 0.00 | 0.25 | 0.25 | 93 | 1009.4 |
| 20260904041518 | 77 | 180 | 7.0 | 11.0 | 0.00 | 0.25 | 0.25 | 93 | 1009.4 |
| 20260904040517 | 77 | 180 | 7.0 | 10.0 | 0.00 | 0.25 | 0.25 | 93 | 1009.6 |
| 20260904035518 | 77 | 180 | 7.0 | 10.0 | 0.00 | 0.25 | 0.25 | 93 | 1009.8 |
| 20260904034517 | 77 | 180 | 5.0 | 7.0 | 0.00 | 0.25 | 0.25 | 93 | 1009.8 |
| 20260904033517 | 77 | 180 | 5.0 | 8.0 | 0.00 | 0.25 | 0.25 | 94 | 1009.8 |
| 20260904032517 | 76 | 180 | 5.0 | 8.0 | 0.00 | 0.25 | 0.25 | 94 | 1009.8 |
| 20260904031518 | 76 | 180 | 4.0 | 6.0 | 0.00 | 0.25 | 0.25 | 93 | 1009.7 |
| 20260904030517 | 77 | 180 | 5.0 | 7.0 | 0.00 | 0.25 | 0.25 | 93 | 1009.6 |
| 20260904025517 | 77 | 180 | 5.0 | 8.0 | 0.00 | 0.25 | 0.25 | 92 | 1009.5 |
| 20260904024517 | 77 | 180 | 6.0 | 7.0 | 0.00 | 0.25 | 0.25 | 93 | 1009.3 |
| 20260904023517 | 77 | 180 | 5.0 | 7.0 | 0.00 | 0.25 | 0.25 | 92 | 1009.3 |
| 20260904022517 | 77 | 180 | 5.0 | 8.0 | 0.00 | 0.25 | 0.25 | 92 | 1009.1 |
| 20260904021517 | 78 | 180 | 5.0 | 7.0 | 0.00 | 0.25 | 0.25 | 92 | 1009.3 |
| 20260904020517 | 78 | 180 | 5.0 | 7.0 | 0.00 | 0.25 | 0.25 | 93 | 1009.2 |
| 20260904015517 | 77 | 158 | 4.0 | 5.0 | 0.00 | 0.25 | 0.25 | 93 | 1009.0 |
| 20260904014522 | 77 | 158 | 5.0 | 7.0 | 0.00 | 0.25 | 0.25 | 93 | 1008.9 |
| 20260904013522 | 77 | 158 | 5.0 | 6.0 | 0.00 | 0.25 | 0.25 | 93 | 1008.7 |
| 20260904012517 | 77 | 158 | 5.0 | 6.0 | 0.00 | 0.25 | 0.25 | 92 | 1008.5 |
| 20260904011537 | 77 | 158 | 3.0 | 5.0 | 0.00 | 0.25 | 0.25 | 92 | 1008.4 |
| 20260904010517 | 78 | 158 | 3.0 | 5.0 | 0.00 | 0.25 | 0.25 | 90 | 1008.4 |
| 20260904005517 | 79 | 158 | 3.0 | 5.0 | 0.00 | 0.25 | 0.25 | 89 | 1008.4 |
| 20260904004517 | 79 | 158 | 4.0 | 8.0 | 0.00 | 0.25 | 0.25 | 88 | 1008.4 |
| 20260904003517 | 80 | 158 | 3.0 | 4.0 | 0.00 | 0.25 | 0.25 | 87 | 1008.4 |
| 20260904002517 | 81 | 158 | 4.0 | 5.0 | 0.00 | 0.25 | 0.25 | 84 | 1008.3 |
| 20260904001516 | 82 | 158 | 4.0 | 6.0 | 0.00 | 0.25 | 0.25 | 82 | 1008.3 |
| 20260904000517 | 82 | 158 | 4.0 | 7.0 | 0.00 | 0.25 | 0.25 | 81 | 1008.3 |
| 20260903235516 | 83 | 158 | 5.0 | 7.0 | 0.00 | 0.25 | 0.25 | 79 | 1008.3 |
| 20260903234518 | 84 | 180 | 7.0 | 12.0 | 0.00 | 0.25 | 0.25 | 78 | 1008.2 |
| 20260903233517 | 84 | 180 | 7.0 | 11.0 | 0.00 | 0.25 | 0.25 | 77 | 1007.9 |
| 20260903232516 | 83 | 180 | 6.0 | 10.0 | 0.00 | 0.25 | 0.25 | 78 | 1007.9 |
| 20260903231516 | 84 | 180 | 6.0 | 9.0 | 0.00 | 0.25 | 0.25 | 76 | 1008.1 |
| 20260903230517 | 84 | 203 | 9.0 | 15.0 | 0.00 | 0.25 | 0.25 | 75 | 1008.2 |
| 20260903225517 | 86 | 203 | 12.0 | 18.0 | 0.00 | 0.25 | 0.25 | 72 | 1008.6 |
| 20260903224517 | 86 | 203 | 13.0 | 19.0 | 0.00 | 0.25 | 0.25 | 71 | 1008.5 |
| 20260903223516 | 86 | 203 | 12.0 | 22.0 | 0.00 | 0.25 | 0.25 | 71 | 1008.2 |
| 20260903222517 | 86 | 203 | 9.0 | 13.0 | 0.00 | 0.25 | 0.25 | 73 | 1008.1 |
| 20260903221516 | 85 | 180 | 7.0 | 14.0 | 0.00 | 0.25 | 0.25 | 73 | 1007.8 |
| 20260903220517 | 86 | 180 | 10.0 | 14.0 | 0.00 | 0.25 | 0.25 | 71 | 1007.6 |
| 20260903215517 | 87 | 180 | 11.0 | 16.0 | 0.00 | 0.25 | 0.25 | 69 | 1007.5 |
| 20260903214517 | 87 | 180 | 11.0 | 17.0 | 0.00 | 0.25 | 0.25 | 68 | 1007.3 |
| 20260903213516 | 87 | 180 | 11.0 | 16.0 | 0.00 | 0.25 | 0.25 | 67 | 1007.6 |
| 20260903212516 | 87 | 203 | 12.0 | 20.0 | 0.00 | 0.25 | 0.25 | 67 | 1008.0 |
| 20260903211537 | 87 | 203 | 11.0 | 21.0 | 0.00 | 0.25 | 0.25 | 69 | 1008.2 |
| 20260903210516 | 87 | 203 | 10.0 | 16.0 | 0.00 | 0.25 | 0.25 | 69 | 1008.2 |
| 20260903205516 | 86 | 180 | 8.0 | 12.0 | 0.00 | 0.25 | 0.25 | 71 | 1008.6 |
| 20260903204516 | 85 | 180 | 9.0 | 13.0 | 0.00 | 0.25 | 0.25 | 70 | 1008.6 |
| 20260903203516 | 85 | 203 | 11.0 | 16.0 | 0.00 | 0.25 | 0.25 | 69 | 1008.4 |
| 20260903202517 | 85 | 203 | 10.0 | 16.0 | 0.00 | 0.25 | 0.25 | 68 | 1008.4 |
| 20260903201536 | 86 | 203 | 13.0 | 22.0 | 0.00 | 0.25 | 0.25 | 67 | 1008.4 |
| 20260903200516 | 86 | 203 | 13.0 | 18.0 | 0.00 | 0.25 | 0.25 | 66 | 1008.6 |
| 20260903195516 | 87 | 203 | 15.0 | 23.0 | 0.00 | 0.25 | 0.25 | 66 | 1008.5 |
| 20260903194536 | 86 | 180 | 15.0 | 24.0 | 0.00 | 0.25 | 0.25 | 67 | 1008.5 |
| 20260903193516 | 86 | 203 | 15.0 | 22.0 | 0.00 | 0.25 | 0.25 | 67 | 1008.6 |
| 20260903192517 | 87 | 180 | 17.0 | 29.0 | 0.00 | 0.25 | 0.25 | 65 | 1008.6 |
| 20260903191536 | 87 | 203 | 18.0 | 27.0 | 0.00 | 0.25 | 0.25 | 65 | 1008.7 |
| 20260903190556 | 87 | 203 | 15.0 | 27.0 | 0.00 | 0.25 | 0.25 | 67 | 1008.7 |
| 20260903185516 | 86 | 180 | 14.0 | 24.0 | 0.00 | 0.25 | 0.25 | 68 | 1008.8 |
| 20260903184517 | 87 | 203 | 17.0 | 25.0 | 0.00 | 0.25 | 0.25 | 67 | 1008.8 |
| 20260903183556 | 86 | 180 | 14.0 | 25.0 | 0.00 | 0.25 | 0.25 | 71 | 1009.0 |
| 20260903182516 | 85 | 203 | 15.0 | 23.0 | 0.00 | 0.25 | 0.25 | 71 | 1009.0 |
| 20260903181516 | 84 | 180 | 15.0 | 25.0 | 0.00 | 0.25 | 0.25 | 72 | 1009.2 |
| 20260903180517 | 84 | 180 | 13.0 | 22.0 | 0.00 | 0.25 | 0.25 | 74 | 1009.4 |
| 20260903175516 | 83 | 180 | 13.0 | 21.0 | 0.00 | 0.25 | 0.25 | 75 | 1009.3 |
| 20260903174516 | 83 | 180 | 16.0 | 29.0 | 0.00 | 0.25 | 0.25 | 73 | 1009.4 |
| 20260903173516 | 83 | 180 | 12.0 | 21.0 | 0.00 | 0.25 | 0.25 | 73 | 1009.6 |
| 20260903172516 | 82 | 180 | 16.0 | 22.0 | 0.00 | 0.25 | 0.25 | 73 | 1009.5 |
| 20260903171516 | 82 | 180 | 15.0 | 23.0 | 0.00 | 0.25 | 0.25 | 74 | 1009.5 |
| 20260903170515 | 80 | 180 | 14.0 | 24.0 | 0.00 | 0.25 | 0.25 | 75 | 1009.6 |
| 20260903165516 | 82 | 180 | 15.0 | 25.0 | 0.00 | 0.25 | 0.25 | 72 | 1009.8 |
| 20260903164516 | 80 | 180 | 17.0 | 26.0 | 0.00 | 0.25 | 0.25 | 74 | 1009.5 |